Location: Forst
(46.9333°N, 15.4333°E)
Time: 02:37:05
(UTC+00:00)

Envisat - Pass Details

Date: 05 October 2021
Orbit: 764 x 766 km, 98.2° (Epoch: 23 October)

Event Time Altitude Azimuth Distance (km) Brightness Sun altitude
Rises 04:23:42 0° 12° (NNE) 3,243 6.4 -7.4°
Reaches altitude 10° 04:26:00 10° 11° (NNE) 2,312 5.7 -7.0°
Maximum altitude 04:31:06 79° 286° (WNW) 785 3.0 -6.2°
Drops below altitude 10° 04:36:09 10° 200° (SSW) 2,295 5.3 -5.3°
Sets 04:38:27 0° 200° (SSW) 3,216 6.0 -4.9°
